CW7710 Weather Reports


Display with metric or nautical units.
time (UTC)temp
F
wind
direction
speed
MPH
gust
MPH
rain 1hr
in
rain 24hr
in
rain mn
in
humidity
%
barometer
mb
20260831033349 59 237 4.0 0.0 0.00 0.00 0.16 47 1016.6
20260831032338 59 257 4.0 0.0 0.00 0.00 0.16 48 1016.5
20260831031401 61 248 3.0 0.0 0.00 0.00 0.16 46 1016.0
20260831030326 64 23 6.0 0.0 0.00 0.00 0.16 39 1015.9
20260831025353 65 9 8.0 0.0 0.00 0.00 0.16 36 1015.3
20260831024337 65 356 9.0 0.0 0.00 0.00 0.16 37 1015.2
20260831023343 65 345 9.0 0.0 0.00 0.00 0.16 37 1015.1
20260831022326 65 349 7.0 0.0 0.00 0.00 0.16 38 1015.1
20260831021329 63 334 6.0 0.0 0.00 0.00 0.16 41 1015.3
20260831020352 63 321 6.0 0.0 0.00 0.00 0.16 41 1015.2
20260831015335 65 305 7.0 0.0 0.00 0.00 0.16 39 1014.8
20260831014402 67 306 5.0 0.0 0.00 0.00 0.16 36 1014.5
20260831013344 68 294 4.0 0.0 0.00 0.00 0.16 35 1015.0
20260831012347 69 309 6.0 0.0 0.00 0.00 0.16 34 1015.0
20260831011329 70 296 7.0 0.0 0.00 0.00 0.16 31 1014.7
20260831010335 71 284 8.0 0.0 0.00 0.00 0.16 29 1014.8
20260831005339 72 296 9.0 0.0 0.00 0.00 0.16 29 1014.8
20260831004405 72 289 12.0 0.0 0.00 0.00 0.16 28 1014.8
20260831003328 72 281 12.0 0.0 0.00 0.00 0.16 27 1014.8
20260831002331 72 296 11.0 0.0 0.00 0.00 0.16 27 1014.9
20260831001401 72 299 13.0 0.0 0.00 0.00 0.16 27 1015.0
20260831000344 73 301 14.0 0.0 0.00 0.00 0.16 26 1014.6
20260830235348 73 323 15.0 0.0 0.00 0.00 0.16 27 1014.7
20260830234330 73 278 16.0 0.0 0.00 0.00 0.16 26 1014.6
20260830233325 73 288 15.0 0.0 0.00 0.00 0.16 27 1014.7
20260830232328 73 268 17.0 0.0 0.00 0.00 0.16 26 1014.6
20260830231351 73 270 15.0 0.0 0.00 0.00 0.16 27 1014.7
20260830230337 73 296 15.0 0.0 0.00 0.00 0.16 27 1014.7
20260830225340 72 275 15.0 0.0 0.00 0.00 0.16 28 1015.3
20260830224328 72 279 15.0 0.0 0.00 0.00 0.16 28 1015.4
20260830223352 72 292 13.0 0.0 0.00 0.00 0.16 30 1015.4
20260830222335 73 296 14.0 0.0 0.00 0.00 0.16 31 1015.5
20260830221339 72 255 14.0 0.0 0.00 0.00 0.16 29 1015.6
20260830220326 71 325 8.0 0.0 0.00 0.00 0.16 33 1015.6
20260830215328 71 311 6.0 0.0 0.00 0.00 0.16 37 1015.4
20260830214351 71 199 7.0 0.0 0.00 0.00 0.16 35 1015.4
20260830213332 70 225 5.0 0.0 0.00 0.00 0.16 36 1015.6
20260830212323 70 199 4.0 0.0 0.00 0.00 0.16 36 1015.5
20260830211329 69 272 5.0 0.0 0.00 0.00 0.16 38 1016.1
20260830210335 69 256 4.0 0.0 0.00 0.00 0.16 40 1016.1
20260830205338 68 204 4.0 0.0 0.00 0.00 0.16 42 1016.0
20260830204401 68 283 5.0 0.0 0.00 0.00 0.16 45 1016.0
20260830203327 67 275 3.0 0.0 0.00 0.00 0.16 44 1016.2
20260830202330 66 199 5.0 0.0 0.00 0.00 0.16 47 1016.5
20260830201332 66 108 6.0 0.0 0.00 0.00 0.16 50 1016.5
20260830200355 66 86 6.0 0.0 0.00 0.00 0.16 49 1016.6
20260830195338 65 46 3.0 0.0 0.00 0.00 0.16 51 1016.6
20260830194344 64 136 3.0 0.0 0.00 0.00 0.16 51 1016.7
20260830193348 64 140 3.0 0.0 0.00 0.00 0.16 51 1016.7
20260830192334 64 137 3.0 0.0 0.00 0.00 0.16 53 1016.8
20260830191338 64 145 4.0 0.0 0.00 0.00 0.16 53 1016.8
20260830190349 63 80 5.0 0.0 0.00 0.00 0.16 52 1016.3
20260830185329 63 142 7.0 0.0 0.00 0.00 0.16 55 1016.3
20260830184352 63 167 4.0 0.0 0.00 0.00 0.16 53 1016.4
20260830183335 62 144 2.0 0.0 0.00 0.00 0.16 54 1016.5
20260830182339 62 115 4.0 0.0 0.00 0.00 0.16 53 1016.8
20260830181326 61 176 4.0 0.0 0.00 0.00 0.16 54 1017.1
20260830180350 61 84 5.0 0.0 0.00 0.00 0.16 54 1017.1
20260830175335 61 134 5.0 0.0 0.00 0.00 0.16 54 1017.3
20260830174337 60 140 3.0 0.0 0.00 0.00 0.16 53 1017.5
20260830173344 61 253 1.0 0.0 0.00 0.00 0.16 53 1017.4
20260830172326 60 163 2.0 0.0 0.00 0.00 0.16 55 1017.6
20260830171329 59 181 3.0 0.0 0.00 0.00 0.16 56 1017.8
20260830170352 59 84 3.0 0.0 0.00 0.00 0.16 55 1017.9
20260830165338 59 90 3.0 0.0 0.00 0.00 0.16 55 1017.6
20260830164342 58 346 2.0 0.0 0.00 0.00 0.16 57 1017.8
20260830163325 58 299 4.0 0.0 0.00 0.00 0.16 58 1017.7
20260830162329 57 346 5.0 0.0 0.00 0.00 0.16 59 1017.7
20260830161336 58 305 4.0 0.0 0.00 0.00 0.16 62 1017.4
20260830160339 56 22 5.0 0.0 0.00 0.00 0.16 66 1016.7
20260830155322 55 4 5.0 0.0 0.00 0.00 0.16 70 1017.3
20260830154328 55 296 4.0 0.0 0.00 0.00 0.16 73 1017.3
20260830153335 53 332 3.0 0.0 0.00 0.00 0.16 75 1016.6
20260830152358 53 309 3.0 0.0 0.00 0.00 0.16 77 1016.6
20260830151324 52 74 3.0 0.0 0.00 0.00 0.16 81 1016.5
20260830150331 52 315 3.0 0.0 0.00 0.00 0.16 83 1016.6
20260830145335 51 342 3.0 0.0 0.00 0.00 0.16 83 1016.8
20260830144342 51 338 6.0 0.0 0.00 0.00 0.16 82 1016.8
20260830143345 52 300 9.0 0.0 0.00 0.00 0.15 82 1016.6
20260830142327 52 298 6.0 0.0 0.00 0.00 0.15 83 1016.4
20260830141331 52 267 5.0 0.0 0.00 0.00 0.15 84 1016.9
20260830140338 52 292 5.0 0.0 0.00 0.00 0.15 85 1016.4
20260830135321 52 333 4.0 0.0 0.00 0.00 0.15 86 1015.7
20260830134327 52 335 7.0 0.0 0.00 0.00 0.15 86 1015.7
20260830133334 51 313 5.0 0.0 0.00 0.00 0.15 87 1015.4
20260830132341 51 287 4.0 0.0 0.00 0.00 0.15 86 1015.1
20260830131405 51 252 4.0 0.0 0.00 0.00 0.15 86 1015.2
20260830130326 51 290 4.0 0.0 0.00 0.00 0.15 86 1015.1
20260830125330 51 310 7.0 0.0 0.00 0.00 0.15 86 1015.7
20260830124334 51 280 8.0 0.0 0.00 0.00 0.15 86 1015.7
20260830123342 51 249 10.0 0.0 0.00 0.00 0.15 87 1015.6
20260830122325 51 246 8.0 0.0 0.00 0.00 0.15 86 1015.4
20260830121331 51 245 6.0 0.0 0.00 0.00 0.15 86 1015.2
20260830120334 51 264 6.0 0.0 0.00 0.00 0.15 86 1015.4
20260830115334 52 275 7.0 0.0 0.00 0.00 0.15 86 1015.6
20260830114337 53 272 7.0 0.0 0.00 0.00 0.15 86 1015.5
20260830113342 53 218 7.0 0.0 0.00 0.00 0.15 85 1015.1
20260830112345 53 242 8.0 0.0 0.00 0.00 0.15 85 1014.8
20260830111332 54 120 12.0 0.0 0.00 0.00 0.15 84 1013.5
20260830110335 55 71 4.0 0.0 0.00 0.00 0.14 84 1013.4
20260830105339 55 23 1.0 0.0 0.00 0.00 0.13 83 1014.9
20260830104341 56 57 6.0 0.0 0.00 0.00 0.12 82 1015.8
20260830103328 57 296 11.0 0.0 0.00 0.00 0.00 81 1015.9
20260830102331 58 315 9.0 0.0 0.00 0.00 0.00 80 1015.3
20260830101334 58 340 7.0 0.0 0.00 0.00 0.00 81 1015.1
20260830100358 58 339 5.0 0.0 0.00 0.00 0.00 82 1014.9
20260830095328 57 315 6.0 0.0 0.00 0.00 0.00 83 1015.2
20260830094334 57 351 5.0 0.0 0.00 0.00 0.00 83 1015.0
20260830093337 57 307 7.0 0.0 0.00 0.00 0.00 83 1015.1
20260830092340 57 308 6.0 0.0 0.00 0.00 0.00 83 1015.3
20260830091328 56 320 7.0 0.0 0.00 0.00 0.00 84 1014.7
20260830090335 55 304 9.0 0.0 0.00 0.00 0.00 84 1014.9
20260830085338 54 286 6.0 0.0 0.00 0.00 0.00 83 1014.8
20260830084402 54 287 4.0 0.0 0.00 0.00 0.00 82 1014.6
20260830083345 55 136 6.0 0.0 0.00 0.00 0.00 82 1014.3
20260830082332 56 103 8.0 0.0 0.00 0.00 0.00 82 1013.9
20260830081335 57 88 6.0 0.0 0.00 0.00 0.00 83 1013.2
20260830080342 56 116 2.0 0.0 0.00 0.00 0.00 83 1013.8
20260830075326 56 247 4.0 0.0 0.00 0.00 0.00 83 1013.7
20260830074332 55 246 5.0 0.0 0.00 0.00 0.00 82 1014.3
20260830073335 56 264 5.0 0.0 0.00 0.00 0.00 82 1014.1
20260830072342 56 284 7.0 0.0 0.00 0.00 0.00 81 1014.1
20260830071325 56 279 9.0 0.0 0.00 0.00 0.00 81 1014.1
20260830070333 56 271 5.0 0.0 0.00 0.00 0.00 80 1013.7
20260830065337 57 284 9.0 0.0 0.00 0.00 0.00 81 1014.0
20260830064341 56 252 10.0 0.0 0.00 0.00 0.00 80 1013.3
20260830063325 56 257 10.0 0.0 0.00 0.00 0.00 79 1013.1
20260830062336 56 264 8.0 0.0 0.00 0.00 0.00 79 1013.0
20260830061340 56 292 8.0 0.0 0.00 0.00 0.00 79 1012.8
20260830060344 56 247 7.0 0.0 0.00 0.00 0.00 77 1012.8
20260830055327 58 242 5.0 0.0 0.00 0.00 0.13 76 1012.6
20260830054338 58 265 3.0 0.0 0.00 0.00 0.13 76 1012.4
20260830053401 57 34 0.0 0.0 0.00 0.00 0.13 78 1012.6
20260830052340 56 313 4.0 0.0 0.00 0.00 0.13 80 1012.7
20260830051342 56 304 5.0 0.0 0.00 0.00 0.13 80 1012.7
20260830050329 57 223 5.0 0.0 0.00 0.00 0.13 79 1012.9
20260830045352 57 194 5.0 0.0 0.00 0.00 0.13 78 1012.9
20260830044334 58 190 1.0 0.0 0.00 0.00 0.13 76 1012.8
20260830043338 59 104 1.0 0.0 0.00 0.00 0.13 75 1012.7
20260830042341 59 121 2.0 0.0 0.00 0.00 0.13 75 1012.8
20260830041348 60 65 3.0 0.0 0.00 0.00 0.13 74 1012.4
20260830040329 60 82 4.0 0.0 0.00 0.00 0.13 75 1012.7
20260830035332 60 91 4.0 0.0 0.00 0.00 0.13 75 1013.3
20260830034337 60 88 5.0 0.0 0.00 0.00 0.13 76 1013.1